Regional Weather Roundup
Issued by NWS Albany, NY

Home | Current Version | Previous Version | Text Only | Print | Product List | Glossary On
Versions: 1 2 3 4 5 6 7 8 9 10 11 12 13 14 15 16 17 18 19 20 21 22 23 24 25 26 27 28 29
000
ASUS41 KALY 241010
RWRALY

NEW YORK STATE HOURLY WEATHER ROUNDUP
NATIONAL WEATHER SERVICE ALBANY NY
600 AM EDT FRI OCT 24 2014

NOTE: "FAIR" INDICATES FEW OR NO CLOUDS BELOW 12,000 FEET WITH NO
SIGNIFICANT WEATHER AND/OR NO OBSTRUCTIONS TO VISIBILITY.

NYZ032-033-038>043-046>054-057>066-NYZ062>081-241100-
EAST


CITY           SKY/WX    TMP DP  RH WIND       PRES   REMARKS
ALBANY         LGT RAIN  46  44  93 N5        29.83R FOG
GLENS FALLS    LGT RAIN  44  42  93 E3        29.83R FOG
POUGHKEEPSIE   LGT RAIN  49  44  83 N3        29.80R
MONTGOMERY     CLOUDY    50  42  74 NW10      29.78S
WHITE PLAINS   LGT RAIN  49  43  80 NW10      29.77R
ISLIP          CLOUDY    51  45  79 NW16G22   29.74R
NEW YORK CITY  CLOUDY    51  43  74 NW14      29.79R
CENTRAL PARK   MOCLDY    51  42  71 VRB5      29.81S
$$

NYZ005>009-017-018-044>046-055-056-241100-
CENTRAL


CITY           SKY/WX    TMP DP  RH WIND       PRES   REMARKS
FULTON         CLOUDY    48  45  89 CALM      29.95F
SYRACUSE       CLOUDY    49  45  86 W7        29.95S
ROME           CLOUDY    46  42  86 W10       29.92S
ELMIRA         PTCLDY    43  43 100 CALM      29.96R
BINGHAMTON     CLOUDY    45  40  82 N13       29.90R
MONTICELLO     CLOUDY    45  43  93 NW10G16   29.83R
$$

NYZ026>034-041>043-241100-
NORTH


CITY           SKY/WX    TMP DP  RH WIND       PRES   REMARKS
WATERTOWN      CLOUDY    45  40  82 CALM      29.94F
FORT DRUM      NOT AVBL
MASSENA        CLOUDY    46  42  86 CALM      29.94S
SARANAC LAKE   LGT RAIN  39  38  96 N6        29.86R WCI  35
PLATTSBURGH    CLOUDY    42  41  96 NW13G22   29.87R FOG
$$

NYZ001>004-010>016-019>021-241100-
WEST


CITY           SKY/WX    TMP DP  RH WIND       PRES   REMARKS
NIAGARA FALLS  CLEAR     38  36  92 W9        30.03R WCI  31
BUFFALO        PTCLDY    40  37  89 S5        30.03R
DUNKIRK        PTCLDY    36  35  96 SW5       30.06R WCI  32
JAMESTOWN      CLEAR     43  39  87 NW6       30.05S
WELLSVILLE     PTCLDY    39  36  89 W8        30.01R WCI  33
ROCHESTER      CLOUDY    50  43  77 W10       29.99S
PENN YAN       PTCLDY    48  43  82 CALM      29.97S
$$

             KEY
       WCI = WIND CHILL INDEX
       VSB = VISIBILITY
       HX  = HEAT INDEX
$$



USA.gov is the U.S. government's official web portal to all federal, state and local government web resources and services.